Weather in Sanatoriy Zhemchuzhina

Russia / Saint-Petersburg and Leningrad Oblast     58°43′10″N   29°45′31″E
temp.,
°C
wind,
m/s
gust,
m/s
humid.,
%
clouds,
%
prec.,
mm/h
press.,
hPa
HPBL,
m
11 april, sun
sun1100:00−1sw28864 0.0 1019219
03:00−1sw27865 0.0 1021167
06:00−1sw27835 0.0 1023142
09:00+4sw35556 0.0 1025381
12:00+8sw23345 0.0 10261223
15:00+9s233431 0.0 10271571
18:00+9se2450100 0.0 10271289
21:00+6ese3880100 0.0 1028248
12 april, mon
mon1200:00+6ese31081100 0.0 1028353
03:00+6se399522 0.2 1027231
06:00+5sse3109594 0.0 1026218
09:00+9sse41473100 0.0 1026508
12:00+14s5115261 0.0 10261018
15:00+16s594480 0.0 10241391
18:00+15sse4950100 0.0 10231317
21:00+9sse397462 0.0 1022169
13 april, tue
tue1300:00+7sse3108113 0.0 1021184
03:00+6sse3984100 0.0 1020194
06:00+5s3984100 0.0 1020194
09:00+9s367047 0.0 1019254
12:00+12s4858100 0.0 1020575
15:00+14sw3651100 0.0 10201352
18:00+7wnw3787100 0.1 1021394
21:00+5nw3690100 0.2 1022403
14 april, wed
wed1400:00+5w1589100 0.0 1023334
03:00+4wnw2483100 0.0 1022262
06:00+3nnw2588100 0.0 1022220
09:00+4n3580100 0.1 1023457
12:00+5n3467100 0.1 1024783
15:00+7n3451100 0.1 10231053
18:00+7n3452100 0.0 10231193
21:00+4n3761100 0.0 1025317
15 april, thu
thu1500:00+2n3972100 0.0 1025332
03:00+1nne3979100 0.0 1025278
06:000nne3108486 0.0 1026282
09:00+3nne5957100 0.0 1026695
12:00+7nne574259 0.0 10261170
15:00+9nne58365 0.0 10261434
18:00+7ne59385 0.0 10271115
21:00+3ne413555 0.0 1030645